Temp
26 28 28 30 30 31 30 30 30 29 28 28 28 28 29 25 25 25 25 24 24 24 23 22 21 21 21 20 19 18 18 18 18 18 18 20 20 20 20 20 19 20 19 20
28 27 30 30 30 30 30 30 30 29 28 28 29 29 29 28 26 26 26 25 24 24 24 23 22 21 21 20 19 19 18 19 19 19 19 20 21 21 21 20 19 19 19 20
28 29 30 30 30 29 30 30 30 30 28 29 28 29 29 29 27 25 26 26 25 25 24 23 22 22 21 21 20 19 19 19 19 19 19 19 19 20 20 20 20 20 20 20
28 30 29 29 29 29 29 31 30 29 29 30 29 30 30 29 28 27 26 26 26 25 25 24 23 22 21 21 20 20 19 19 20 20 19 20 20 21 21 21 21 20 19 19
27 29 28 28 29 30 29 32 30 30 30 30 30 29 32 30 28 28 27 26 26 26 25 24 23 22 22 22 21 20 20 19 19 20 20 19 20 21 21 21 20 20 19 19
28 28 29 29 30 30 30 29 29 29 30 29 31 30 32 32 31 30 28 27 27 26 26 25 24 23 23 22 21 21 20 21 20 20 21 20 20 21 21 21 20 20 21 20
26 28 28 28 29 30 29 29 27 27 28 28 31 29 31 32 32 31 30 28 27 26 26 25 25 24 23 23 22 21 20 21 21 20 20 21 19 20 20 20 20 21 21 21
26 26 27 28 29 28 28 29 28 26 28 30 31 28 31 32 32 32 31 29 28 27 26 26 25 25 24 23 22 22 20 22 21 20 20 20 20 20 20 20 21 21 21 21
27 26 28 28 29 29 28 28 31 30 31 30 31 31 32 32 33 32 31 30 29 28 27 26 26 25 24 24 23 22 21 23 22 21 21 20 21 20 20 20 21 21 20 21
26 25 27 28 28 28 29 30 28 29 27 27 29 30 31 32 32 32 32 31 30 29 28 27 26 26 25 24 23 22 22 23 23 21 21 21 20 21 21 20 20 20 20 21
26 25 27 27 26 27 27 27 28 30 29 28 28 30 33 32 32 31 31 31 30 29 29 28 27 26 25 24 24 23 22 23 22 21 20 20 20 19 21 20 21 20 21 21
25 25 25 25 27 28 29 28 29 28 27 29 30 31 33 31 31 30 31 28 29 29 29 28 27 26 24 24 24 23 22 21 23 23 22 21 20 19 19 21 20 21 21 21
23 24 24 25 26 26 26 28 29 29 29 28 28 30 32 31 29 28 28 27 26 28 28 28 27 26 25 24 23 23 22 22 21 23 23 21 20 20 20 20 20 20 21 21
17 23 24 25 25 27 25 26 28 29 28 28 29 29 32 31 31 27 27 25 25 25 26 27 26 25 24 23 22 22 22 21 21 20 20 22 20 20 20 20 19 21 21 21
20 21 24 25 26 27 27 26 27 27 28 28 29 29 31 31 30 25 24 23 23 24 25 26 25 24 23 22 21 20 21 20 21 20 20 21 23 22 20 20 20 19 21 22
20 20 21 23 25 25 25 27 27 27 27 28 29 29 30 27 25 23 21 22 21 20 17 17 20 22 22 21 21 20 20 20 19 19 19 20 22 23 23 22 22 22 22 22
17 19 21 22 24 24 24 26 26 27 27 28 27 28 29 23 19 17 17 16 15 14 14 15 15 16 18 20 19 19 19 19 19 18 18 19 19 20 22 23 23 23 23 22
15 16 19 22 23 21 24 24 25 26 25 24 24 20 20 15 12 12 12 13 12 13 13 14 15 15 16 18 17 18 18 18 19 18 19 18 18 18 20 20 19 20 21 21
16 16 19 21 22 21 20 21 22 23 21 18 21 17 14 15 14 12 12 12 12 12 13 14 14 15 15 16 17 17 17 17 17 17 18 18 18 18 19 19 20 20 20 21
15 16 17 21 20 21 22 19 17 19 21 19 18 18 15 15 19 13 11 12 12 12 12 13 14 14 15 16 16 16 16 17 17 17 19 19 17 18 17 17 20 18 20 21
14 14 17 19 20 18 17 17 17 19 19 18 17 16 17 17 16 11 11 12 12 12 12 12 13 14 14 14 15 16 16 16 16 17 17 18 17 17 17 19 19 18 20 19
17 17 17 19 20 18 12 16 17 11 16 14 14 15 13 12 11 11 11 11 11 11 11 11 12 12 12 13 13 14 15 14 14 15 16 16 16 18 16 18 18 19 20 18
14 14 16 15 15 10 7 8 7 10 13 13 12 12 12 11 11 11 11 11 11 11 11 12 12 11 11 12 12 14 15 16 15 13 14 15 16 17 16 16 17 18 19 18
12 11 13 14 9 8 7 6 7 9 12 13 13 11 11 11 11 11 11 11 11 12 12 12 12 12 12 13 13 13 14 14 15 13 13 14 14 15 17 16 15 16 17 18
9 10 12 9 8 7 6 6 6 7 10 11 12 12 12 12 11 11 10 10 11 11 11 12 12 12 14 13 13 13 14 13 13 14 14 13 14 14 16 17 17 18 16 17
9 8 10 12 9 9 7 5 6 6 8 10 11 12 11 12 12 12 12 11 11 11 12 12 11 11 13 13 14 15 14 14 14 13 13 15 14 15 14 14 14 16 16 14
Height
1506 1503 1500 1492 1491 1486 1492 1491 1496 1500 1505 1507 1506 1506 1505 1517 1521 1523 1528 1533 1538 1542 1547 1551 1556 1559 1563 1566 1568 1571 1574 1576 1579 1583 1585 1588 1591 1593 1595 1597 1596 1597 1599 1600
1498 1498 1489 1489 1489 1491 1494 1496 1495 1500 1503 1505 1500 1502 1499 1507 1515 1517 1521 1527 1533 1539 1543 1548 1552 1557 1560 1564 1567 1570 1572 1575 1578 1583 1586 1588 1591 1593 1595 1597 1597 1598 1599 1601
1488 1488 1488 1489 1490 1494 1491 1494 1490 1497 1500 1500 1501 1496 1495 1501 1509 1515 1517 1522 1528 1533 1538 1544 1549 1553 1557 1561 1564 1568 1571 1574 1578 1582 1585 1586 1590 1592 1594 1596 1598 1598 1599 1601
1484 1481 1484 1487 1491 1491 1493 1485 1490 1495 1501 1500 1496 1499 1490 1493 1502 1508 1513 1517 1521 1527 1534 1540 1545 1550 1554 1558 1562 1566 1569 1572 1575 1579 1584 1587 1588 1591 1594 1596 1598 1599 1600 1601
1480 1477 1482 1488 1486 1485 1489 1479 1490 1491 1495 1493 1491 1502 1476 1484 1496 1497 1503 1508 1513 1519 1526 1533 1539 1545 1550 1555 1559 1563 1566 1570 1574 1576 1581 1585 1588 1590 1592 1595 1595 1598 1599 1600
1474 1477 1477 1479 1480 1482 1485 1489 1493 1493 1492 1502 1486 1491 1478 1475 1480 1485 1495 1502 1507 1513 1520 1527 1534 1541 1546 1551 1555 1559 1562 1566 1570 1573 1577 1581 1587 1589 1591 1593 1594 1596 1598 1599
1477 1471 1478 1477 1479 1480 1485 1490 1506 1511 1503 1505 1475 1493 1481 1469 1473 1476 1483 1492 1500 1507 1513 1520 1527 1534 1540 1546 1551 1555 1557 1561 1566 1570 1574 1578 1583 1586 1589 1590 1592 1595 1597 1598
1476 1479 1471 1473 1470 1478 1482 1481 1490 1515 1499 1488 1471 1494 1476 1467 1470 1472 1477 1485 1494 1501 1506 1511 1519 1526 1533 1540 1546 1551 1553 1556 1561 1566 1569 1573 1578 1583 1587 1588 1591 1593 1595 1596
1464 1469 1464 1466 1469 1470 1477 1481 1470 1480 1470 1481 1468 1471 1465 1466 1467 1471 1475 1480 1485 1492 1498 1504 1511 1518 1526 1533 1539 1544 1548 1551 1556 1561 1565 1568 1574 1578 1583 1587 1588 1590 1592 1594
1458 1470 1459 1464 1470 1470 1465 1468 1484 1474 1497 1502 1480 1475 1473 1463 1466 1468 1472 1474 1478 1485 1492 1499 1505 1512 1518 1524 1532 1538 1543 1545 1550 1555 1560 1564 1568 1573 1578 1581 1584 1588 1589 1591
1463 1467 1460 1464 1467 1468 1473 1474 1469 1468 1473 1486 1493 1475 1452 1461 1461 1468 1469 1468 1472 1478 1485 1492 1500 1507 1514 1520 1526 1532 1537 1540 1545 1550 1555 1558 1563 1568 1573 1576 1580 1583 1586 1587
1468 1464 1468 1467 1462 1460 1459 1465 1463 1473 1480 1470 1469 1468 1446 1459 1466 1468 1466 1470 1469 1473 1479 1487 1494 1502 1509 1516 1521 1526 1532 1536 1539 1544 1550 1554 1558 1564 1568 1571 1574 1578 1581 1583
1473 1468 1469 1467 1463 1464 1463 1457 1458 1459 1461 1469 1481 1469 1451 1460 1467 1469 1469 1471 1473 1475 1480 1485 1492 1498 1503 1509 1515 1520 1524 1529 1534 1539 1544 1549 1553 1557 1561 1565 1569 1572 1576 1579
1488 1465 1460 1459 1456 1452 1468 1461 1454 1455 1465 1464 1463 1464 1449 1456 1461 1471 1471 1475 1475 1478 1480 1484 1490 1496 1502 1507 1511 1515 1520 1525 1529 1534 1538 1542 1546 1551 1556 1559 1562 1565 1569 1573
1481 1471 1459 1454 1446 1443 1448 1455 1456 1458 1454 1460 1457 1457 1453 1453 1459 1473 1477 1479 1479 1481 1483 1486 1490 1495 1499 1503 1506 1510 1515 1520 1526 1529 1532 1536 1540 1545 1550 1553 1555 1559 1562 1565
1482 1473 1467 1459 1449 1451 1450 1447 1448 1451 1455 1456 1454 1454 1452 1463 1471 1479 1483 1481 1484 1487 1488 1487 1490 1494 1497 1500 1503 1506 1509 1513 1519 1523 1527 1532 1535 1539 1542 1546 1548 1551 1555 1559
1489 1478 1468 1459 1447 1452 1458 1445 1447 1448 1448 1452 1461 1457 1455 1472 1483 1488 1489 1487 1488 1490 1489 1489 1490 1490 1491 1497 1500 1503 1506 1509 1513 1518 1523 1528 1531 1533 1536 1539 1541 1543 1546 1550
1492 1487 1473 1456 1451 1468 1444 1445 1446 1448 1453 1462 1462 1473 1473 1485 1490 1491 1491 1491 1490 1490 1490 1490 1490 1489 1490 1491 1494 1500 1503 1507 1511 1514 1517 1521 1526 1530 1531 1532 1533 1537 1539 1542
1490 1489 1471 1463 1454 1453 1460 1458 1459 1458 1470 1476 1469 1480 1485 1488 1488 1493 1492 1491 1491 1491 1490 1491 1492 1491 1491 1490 1492 1495 1500 1503 1508 1511 1513 1517 1522 1523 1526 1527 1528 1530 1534 1535
1488 1488 1483 1458 1458 1458 1445 1466 1470 1469 1469 1474 1475 1479 1484 1486 1482 1494 1494 1494 1494 1494 1494 1494 1493 1492 1491 1492 1494 1494 1495 1497 1501 1508 1508 1502 1515 1514 1520 1522 1524 1527 1528 1529
1482 1489 1476 1464 1455 1461 1467 1471 1472 1472 1472 1474 1477 1480 1482 1483 1485 1491 1493 1495 1495 1495 1495 1495 1494 1493 1493 1495 1496 1494 1496 1499 1502 1503 1501 1503 1508 1506 1515 1516 1519 1521 1521 1523
1465 1470 1470 1461 1456 1464 1482 1475 1473 1482 1477 1479 1480 1481 1484 1486 1489 1492 1494 1496 1496 1497 1497 1498 1497 1495 1495 1495 1498 1495 1496 1499 1502 1504 1506 1507 1509 1499 1502 1508 1507 1512 1515 1515
1480 1475 1466 1471 1471 1486 1487 1487 1486 1483 1483 1482 1484 1486 1487 1490 1492 1494 1496 1497 1498 1500 1499 1499 1499 1497 1499 1496 1500 1494 1497 1497 1500 1503 1505 1505 1503 1504 1508 1506 1507 1508 1508 1509
1486 1486 1478 1478 1491 1491 1490 1490 1487 1486 1488 1487 1488 1489 1491 1493 1495 1496 1498 1498 1500 1502 1503 1503 1503 1502 1500 1501 1498 1497 1496 1498 1500 1503 1503 1505 1509 1507 1503 1503 1505 1502 1506 1506
1492 1490 1483 1491 1493 1493 1493 1493 1492 1491 1492 1493 1494 1495 1496 1498 1499 1500 1501 1501 1502 1503 1504 1504 1504 1504 1503 1502 1501 1501 1498 1498 1502 1502 1504 1505 1504 1500 1502 1501 1500 1499 1501 1501
1492 1491 1487 1483 1490 1492 1496 1496 1495 1494 1495 1497 1498 1499 1500 1501 1502 1503 1504 1504 1504 1504 1503 1502 1503 1502 1503 1503 1504 1505 1502 1503 1503 1503 1502 1501 1502 1502 1504 1503 1503 1499 1500 1499
Wind_Speed
20 13 16 19 18 10 6 9 7 5 2 7 8 7 9 15 19 21 21 24 23 22 21 20 21 20 18 19 18 17 16 17 15 12 11 11 12 10 8 8 9 7 8 9
15 20 20 17 16 15 10 10 9 5 5 6 3 8 10 15 19 23 24 25 25 24 24 23 23 23 22 21 19 19 18 19 17 12 10 12 11 11 8 8 7 7 10 8
23 23 22 18 18 15 17 14 9 7 5 10 7 14 10 12 17 20 22 24 24 26 26 26 24 25 24 24 22 20 20 20 19 14 12 13 14 12 11 8 6 8 10 8
24 24 23 20 20 19 19 16 9 8 8 6 2 1 13 13 16 20 25 25 27 27 27 27 27 26 26 25 23 22 21 22 22 19 15 13 13 14 12 11 9 8 8 7
24 23 20 22 22 20 19 9 12 12 12 11 12 7 5 14 14 19 27 30 30 30 30 30 30 29 27 25 25 25 24 23 21 22 19 15 13 14 12 11 11 10 9 7
24 22 19 24 22 21 19 5 9 11 13 13 15 7 7 11 14 18 24 31 29 30 31 31 30 29 29 27 26 25 27 28 26 25 26 22 16 15 15 13 10 8 8 8
24 22 19 18 22 21 23 17 11 12 12 13 6 7 13 1 5 9 22 31 32 30 31 31 33 32 31 30 28 26 26 30 29 27 28 27 21 19 17 16 12 10 8 10
19 25 23 18 26 22 23 23 15 18 13 14 13 7 6 3 2 9 16 26 30 32 33 34 34 34 33 31 30 28 27 29 30 29 29 30 27 20 18 18 15 12 10 10
21 24 25 17 20 23 23 24 23 22 17 13 12 14 9 10 5 9 13 19 28 33 34 35 34 35 34 33 32 31 30 31 31 30 31 32 30 26 20 17 21 15 13 11
9 14 16 22 16 20 21 18 20 16 23 19 17 16 8 12 9 6 8 16 24 31 34 33 33 34 35 35 33 31 32 33 33 30 31 32 32 30 27 22 20 18 15 15
12 12 16 14 21 23 15 15 18 18 19 16 16 16 12 14 2 4 4 9 20 26 32 33 32 32 34 33 32 32 33 35 33 32 30 30 32 30 28 24 23 22 20 19
15 10 14 21 20 21 25 24 22 16 23 18 15 14 8 8 1 6 6 3 10 25 30 31 31 30 29 31 32 31 30 32 37 35 33 30 28 31 29 30 25 25 23 21
0 12 13 18 11 12 19 23 25 23 18 20 17 17 12 9 6 7 7 5 5 15 22 26 27 29 30 31 31 31 32 31 33 38 35 32 27 28 29 27 26 27 25 20
5 14 16 15 18 16 20 23 24 24 18 19 20 22 15 9 1 6 7 5 4 9 17 23 24 25 25 26 28 30 28 28 30 31 32 36 31 28 27 27 26 31 29 25
5 11 16 21 14 13 20 20 25 25 25 22 18 22 19 14 3 7 6 6 7 7 10 16 18 19 20 20 21 23 24 25 26 30 32 36 35 32 27 27 26 27 32 31
8 7 7 15 18 15 16 20 19 25 25 22 22 16 2 9 6 4 5 6 8 7 5 4 5 10 13 16 18 19 21 23 24 28 27 31 37 37 34 30 26 25 30 33
9 6 7 14 14 17 20 19 18 15 16 19 22 20 7 7 9 8 5 8 8 7 6 5 3 6 9 10 14 17 17 18 21 21 21 22 28 34 36 34 32 31 30 30
10 8 7 9 7 16 5 3 6 10 5 4 2 8 11 13 14 12 9 7 8 6 6 5 4 2 7 13 10 12 14 16 17 18 18 19 21 26 30 29 30 31 32 33
15 9 6 9 12 7 8 7 7 14 10 2 2 8 14 13 13 12 10 7 7 6 6 6 6 5 5 5 11 12 9 11 13 14 15 13 17 20 25 27 28 28 25 27
12 11 7 10 12 13 12 8 2 4 8 8 6 11 14 9 5 3 6 8 9 8 7 7 7 6 7 8 7 11 13 15 18 17 16 17 28 23 23 22 24 22 25 27
9 7 13 12 11 6 6 2 4 7 4 7 7 8 9 5 2 14 9 8 8 9 9 10 10 9 8 5 6 8 8 8 12 16 16 20 31 23 21 22 23 21 23 23
8 9 8 13 12 8 11 4 4 4 5 8 8 8 13 16 16 13 11 8 7 8 7 8 9 10 9 9 7 8 8 8 7 6 9 13 16 18 17 17 19 20 22 23
4 6 5 4 4 5 8 9 6 4 7 13 14 13 14 14 14 13 11 9 8 6 8 7 8 9 8 9 7 8 8 8 8 7 3 3 5 9 9 7 9 11 14 16
2 5 1 6 5 7 8 9 10 14 12 15 16 16 16 15 12 12 11 10 9 9 10 9 10 10 13 11 11 10 10 7 6 6 7 6 3 1 6 4 7 4 10 12
2 8 4 4 6 7 8 8 10 11 13 15 15 15 14 13 12 10 9 9 7 6 4 4 4 5 9 13 13 12 11 10 7 8 9 8 9 10 9 6 6 6 13 13
1 3 3 2 11 6 7 5 8 10 13 10 10 10 10 9 9 7 6 4 3 3 3 2 2 1 0 0 4 8 10 11 10 8 9 10 11 12 11 11 8 9 7 10
Wind_Direction
200 214 215 208 219 238 295 242 181 119 121 215 222 240 196 182 195 190 189 188 190 191 184 185 184 178 181 180 179 180 178 182 176 175 178 170 172 166 158 158 161 155 158 161
191 222 213 225 222 226 226 229 197 129 147 236 217 249 206 187 201 202 195 189 191 191 187 185 187 187 185 187 188 185 183 184 178 182 183 171 178 167 169 161 165 180 173 170
214 214 223 218 222 228 232 229 219 272 160 228 268 245 201 194 196 202 204 196 194 193 190 190 189 191 191 193 194 196 191 191 187 182 185 180 174 175 164 167 156 160 165 174
222 223 213 216 225 216 224 219 261 221 241 261 234 316 177 179 194 195 202 200 197 194 197 194 194 194 195 195 197 198 197 195 197 194 187 191 175 178 179 173 175 173 180 189
213 220 203 216 217 213 239 219 227 246 250 262 214 250 146 172 200 201 202 204 201 196 195 197 197 197 195 197 200 199 203 202 198 201 189 196 191 188 182 180 187 186 210 200
224 206 217 223 219 224 227 212 230 235 247 247 247 235 253 180 220 200 201 203 203 198 198 198 199 199 201 199 199 202 204 211 209 206 198 195 198 192 186 183 185 192 203 216
215 208 216 233 218 222 220 210 214 216 216 235 197 240 249 192 164 214 196 202 201 201 199 197 197 199 202 203 204 204 205 211 215 214 207 204 202 203 203 197 191 198 208 212
208 207 203 203 221 202 215 221 227 221 226 227 180 238 228 89 352 187 202 201 202 201 201 200 199 199 201 203 204 205 208 211 215 216 214 208 208 208 210 216 204 204 207 208
211 219 188 211 212 221 201 221 234 245 249 254 211 221 247 244 249 199 193 195 200 203 202 201 200 200 200 202 203 205 207 212 215 216 217 211 211 205 211 215 210 210 209 210
236 232 187 205 227 221 241 208 224 231 236 229 239 242 238 176 164 135 195 208 206 205 204 203 202 200 199 200 202 206 208 214 214 213 215 213 213 215 217 215 219 214 218 217
248 238 203 201 208 214 200 233 223 227 229 233 232 234 206 230 300 311 300 226 206 202 203 202 202 202 202 200 200 205 207 215 212 212 214 212 214 214 218 216 220 223 227 230
222 241 231 205 227 225 221 215 223 220 217 230 255 229 93 123 160 3 11 334 222 195 195 196 196 197 199 201 202 204 205 209 217 219 217 216 213 213 218 224 220 224 230 237
44 225 229 232 184 215 231 228 222 226 239 220 225 232 151 134 77 28 33 42 179 193 192 190 192 195 198 199 202 204 208 208 211 219 219 217 213 214 217 218 218 222 229 232
257 249 239 225 225 208 213 227 226 226 223 228 219 237 230 183 170 16 53 53 108 183 187 189 193 198 202 204 205 206 207 209 207 211 213 220 216 215 218 217 218 225 227 230
322 262 232 248 266 256 201 215 223 226 233 227 230 225 242 251 15 44 17 70 89 127 172 185 192 200 204 207 208 209 210 210 210 214 216 221 226 224 219 220 222 226 229 232
324 267 274 250 234 235 246 219 216 224 230 242 249 248 233 45 92 54 42 78 88 89 79 83 149 199 211 213 211 211 212 214 211 213 218 222 228 229 230 229 230 233 236 239
297 308 267 240 203 220 233 219 222 221 221 228 234 240 255 92 56 37 30 61 72 62 72 92 166 187 167 199 216 219 217 214 214 218 221 224 227 228 232 234 233 234 237 241
264 296 279 263 201 218 127 66 257 230 148 230 255 36 56 108 88 60 50 65 70 62 72 78 94 133 216 208 191 204 206 205 205 210 213 221 230 235 234 232 232 237 238 241
230 262 268 249 220 108 132 149 170 170 156 160 164 125 122 129 107 60 51 65 68 72 75 78 88 110 127 154 196 172 175 208 207 208 202 216 233 238 240 238 236 238 242 245
223 227 266 219 260 208 104 122 125 234 161 144 154 150 158 183 221 113 94 88 84 80 88 96 101 102 110 116 139 179 168 167 175 199 217 237 228 221 232 232 238 239 238 243
170 215 221 230 242 95 66 6 199 219 102 140 160 152 171 186 68 141 123 108 96 84 71 69 73 84 90 96 134 136 143 155 196 210 197 212 245 248 247 240 239 244 248 245
212 194 202 238 232 220 2 201 261 1 76 105 110 106 119 120 124 129 131 116 103 95 86 77 77 75 82 95 80 101 93 89 118 170 196 208 221 225 233 245 238 242 247 250
259 343 317 0 33 50 36 40 20 52 88 104 98 102 116 119 122 125 126 122 112 100 89 78 78 77 73 78 88 91 88 80 71 58 94 257 255 238 251 240 246 252 261 271
331 331 278 203 79 62 52 47 59 66 79 102 101 104 102 102 104 110 116 114 112 106 99 93 85 79 77 79 81 86 85 72 71 55 47 36 20 11 297 303 272 273 259 255
282 314 145 89 108 101 57 42 47 58 84 94 92 93 100 101 95 89 94 104 116 119 102 94 93 77 51 47 57 64 68 73 49 67 53 34 29 24 1 341 324 299 282 272
262 343 329 81 136 83 93 45 56 70 69 70 81 79 73 82 89 94 89 73 58 20 27 49 357 347 268 227 325 336 19 43 39 45 46 33 28 23 4 7 8 336 308 314